STARLINK-4381 (53222 NORAD) Tracking and Keplerian Element Data

This shows tracking and keplerian element data for the satellite.

Feedback or suggestion? Click here.




ElementValue
Catalog53222
NameSTARLINK-4381
Epoch Orbit1023
Epoch Day269.40693137
Epoch Year2022
RAAN329.2427
Inclination97.654
Eccentricity0.0001898
Argument of Perigee132.7771
Mean Anonmoly227.3613
Mean Motion15.01250331
Decay Rate3.784E-05
L11 53222U 22084AK 22269.40693137 .00003784 00000+0 29913-3 0 9992
L22 53222 97.6540 329.2427 0001898 132.7771 227.3613 15.01250331 10231

Live tracking and technical data element details for STARLINK-4381 (NORAD 53222). STARLINK-4381 can be tracked NOW for your location showing map with azimuth and elevation plus other details from your city location.

Track the satellite on the map from your city or location and see movement details for azimuth, elevation, latitude, longitude, range, height, and movement on the map or in text.







IsCatalogInMostPopularTable: catalog: 53222, numindb: 7
Update: records affected: 1



GetName: 53222 STARLINK-4381

Hit Count: updated at: Fri, 30 Sep 2022 03:38:12 GMT